Regional Weather Roundup
Issued by NWS

Home | Current Version | Previous Version | Graphics & Text | Print | Product List | Glossary On
Versions: 1 2 3 4 5 6 7 8 9 10 11 12 13 14 15 16 17 18 19 20 21 22 23 24 25 26 27 28 29 30 31 32 33 34 35 36 37 38 39 40 41 42 43 44 45 46 47 48 49 50
000
ASUS43 KOAX 181010
RWRNE

WEATHER ROUNDUP FOR NEBRASKA
NATIONAL WEATHER SERVICE OMAHA NE
400 AM CST SUN FEB 18 2018

NOTES: SATELLITE DATA IS BEING USED TO AUGMENT CLOUD COVER ABOVE
       12000 FEET.
       "FAIR" INDICATES FEW OR NO CLOUDS BELOW 12,000 FEET WITH NO
       SIGNIFICANT WEATHER AND/OR OBSTRUCTIONS TO VISIBILITY.


NEZ001>004-019>022-054>056-181100-
NEBRASKA PANHANDLE

CITY           SKY/WX    TMP DP  RH WIND       PRES   REMARKS
SCOTTSBLUFF    PTCLDY    55  11  17 SW22G33   29.50F
ALLIANCE       MOCLDY    32  20  61 SE9       29.52F WCI  24
CHADRON        MOCLDY    40  25  55 S12       29.45F WCI  33
GORDON         FAIR      39  23  53 SW20      29.47F WCI  29
KIMBALL        CLEAR     36  13  38 CALM      29.59F
SIDNEY         PTCLDY    26  16  65 SW12      29.61F WCI  16
$$

NEZ057>060-069>072-079>082-181100-
SOUTHWEST NEBRASKA

CITY           SKY/WX    TMP DP  RH WIND       PRES   REMARKS
NORTH PLATTE   CLEAR     37  19  48 S14G21    29.66F WCI  28
IMPERIAL       CLEAR     36  19  50 S9        29.67F WCI  29
LEXINGTON      CLEAR     39  19  46 S28G35    29.72F WCI  27
MCCOOK         PTCLDY    39  19  44 S9        29.73F WCI  33
OGALLALA       PTCLDY    34  22  63 CALM      29.64F
$$

NEZ005>010-023>029-035>040-094-181100-
NORTH CENTRAL NEBRASKA

CITY           SKY/WX    TMP DP  RH WIND       PRES   REMARKS
VALENTINE      MOCLDY    40  19  43 SW26      29.53F WCI  29
AINSWORTH      CLEAR     37  21  52 S28G35    29.56F WCI  25
BROKEN BOW     CLEAR     37  20  50 S16       29.71F WCI  28
O`NEILL        CLEAR     36  23  61 S21G26    29.67F WCI  24
ORD            CLEAR     37  20  50 S20G32    29.74F WCI  27
THEDFORD       CLEAR     40  19  42 S23G35    29.60F WCI  29
$$

NEZ041-046>049-061>064-073>077-083>087-181100-
SOUTH CENTRAL NEBRASKA

CITY           SKY/WX    TMP DP  RH WIND       PRES   REMARKS
GRAND ISLAND   CLEAR     38  18  44 S26G38    29.80F WCI  26
AURORA         CLEAR     33  19  54 S15G23    29.84F WCI  23
HASTINGS       CLEAR     36  16  44 S16G29    29.82F WCI  26
HEBRON         CLOUDY    37  17  44 S15G21    29.92F WCI  28
HOLDREGE       CLOUDY    37  20  50 S20       29.78F WCI  26
KEARNEY        CLEAR     38  19  46 S23       29.78F WCI  27
YORK           CLEAR     34  19  55 S20       29.87F WCI  22
$$

NEZ011>018-030>034-042>045-181100-
NORTHEAST NEBRASKA

CITY           SKY/WX    TMP DP  RH WIND       PRES   REMARKS
NORFOLK        CLEAR     32  23  69 S21       29.80F WCI  20
ALBION         CLEAR     33  23  66 SE14      29.81F WCI  23
BLAIR          CLEAR     33  25  72 S18G24    29.93F WCI  22
COLUMBUS       CLEAR     33  22  63 S14       29.87F WCI  23
FREMONT        CLEAR     33  25  72 SE14      29.91F WCI  23
TEKAMAH        CLEAR     29  25  85 SE15      29.93F WCI  18
WAYNE          CLEAR     30  26  86 S25G31    29.83F WCI  16
$$

NEZ050>053-065>068-078-088>093-181100-
SOUTHEAST NEBRASKA

CITY           SKY/WX    TMP DP  RH WIND       PRES   REMARKS
LINCOLN        CLEAR     34  22  61 S15       29.94F WCI  24
OMAHA EPPLEY   CLEAR     31  24  75 S15       29.97F WCI  20
BEATRICE       CLOUDY    37  21  52 S14G21    29.95F WCI  28
FALLS CITY     CLOUDY    33  20  58 S12       30.04F WCI  24
NEBRASKA CITY  CLEAR     32  24  73 S15       30.00F WCI  22
PLATTSMOUTH    CLEAR     32  25  73 SE16G23   29.98F WCI  21
$$

NEZ044-045-051>053-067-181100-
OMAHA AREA

CITY           SKY/WX    TMP DP  RH WIND       PRES   REMARKS
OMAHA EPPLEY   CLEAR     31  24  75 S15       29.97F WCI  20
BLAIR          CLEAR     33  25  72 S18G24    29.93F WCI  22
FREMONT        CLEAR     33  25  72 SE14      29.91F WCI  23
MILLARD        CLEAR     32  25  76 SE12      29.96F WCI  23
OFFUTT AFB     CLEAR     28  22  80 S6        29.97F WCI  21
PLATTSMOUTH    CLEAR     32  25  73 SE16G23   29.98F WCI  21
WAHOO          FAIR      31  24  74 SE14      29.92F WCI  21
$$




USA.gov is the U.S. government's official web portal to all federal, state and local government web resources and services.